Regional Weather Roundup
Issued by NWS Midland/Odessa, TX

Skip options and go directly to product.
Home | Oldest Version | Previous Version | Current Version | All | Text Only | Save Text | Print | Product List | Glossary Off

Skip product version selection by date and time.   

718
ASUS44 KMAF 232110
RWRMAF
MIDLAND AREA WEATHER ROUNDUP
NATIONAL WEATHER SERVICE MIDLAND TX
400 PM CDT TUE AUG 23 2016

...IN SOUTHWEST TEXAS AND SOUTHEAST NEW MEXICO...

CITY           SKY/WX    TMP DP  RH WIND       PRES   REMARKS
ALPINE         CLOUDY    82  60  47 SW8       30.23F
ANDREWS        NOT AVBL
ARTESIA        MOSUNNY   88  66  48 S17       30.05F
BIG SPRING     PTSUNNY   91  67  44 S14       30.08F
CARLSBAD       PTSUNNY   88  64  44 N9        30.02F
DRYDEN           N/A     91  69  48 E12G20    30.04F
FORT STOCKTON  MOSUNNY   90  63  40 S17       30.06F
GUAD PASS      CLOUDY    83  58  42 SW23G29   30.20F
HOBBS          MOSUNNY   90  57  33 S17G24    30.07F
MARFA          LGT RAIN N/A N/A N/A SW7       30.22F
MIDLAND AIRPK  CLOUDY    88  64  44 S12       30.08F
MIDLAND INTL   PTSUNNY   87  65  47 S16       30.07F
ODESSA         CLOUDY    88  64  44 S17       30.08F
PECOS          CLOUDY    92  63  38 SE17      30.02F
PRESIDIO       NOT AVBL
SEMINOLE       CLOUDY    88  61  40 S16G23    30.08F
SNYDER           N/A     85  68  56 S8        30.07F
WINK           CLOUDY    91  62  37 S16       30.03F
$$
...OTHER STATIONS IN TEXAS...

CITY           SKY/WX    TMP DP  RH WIND       PRES   REMARKS
ABILENE        SUNNY     93  63  36 S18G24    30.05F
AMARILLO       PTSUNNY   90  58  33 W10       30.01F
AUSTIN         MOSUNNY   93  71  48 S14       30.08F HX 100
BROWNSVILLE    SUNNY     94  72  48 SE16G22   30.07F HX 102
CORPUS CHRISTI MOSUNNY   96  71  44 SE18G26   30.06F HX 103
DALLAS FTW     MOSUNNY   94  70  45 S20G30    30.04F HX 100
DEL RIO        SUNNY     92  68  45 SE18G25   30.02F
EL PASO        PTSUNNY   88  60  38 N8        30.07F
HOUSTON INT    PTSUNNY   85  76  74 SE20      30.10F
LUBBOCK        PTSUNNY   92  63  38 S24G32    30.03F
SAN ANGELO     SUNNY     94  61  33 S15       30.05F
SAN ANTONIO    MOSUNNY   91  70  49 S15G23    30.10F
WACO           SUNNY     94  69  44 S18       30.07F
WICHITA FALLS  NOT AVBL
$$
...OTHER LOCATIONS IN NEW MEXICO...

CITY           SKY/WX    TMP DP  RH WIND       PRES   REMARKS
ALAMAGORDO     PTSUNNY   84  57  39 S12       30.10S
ALBUQUERQUE    MOSUNNY   77  48  35 W8        30.18F
CANNON AFB     CLOUDY    90  47  22 W17G24    30.05F
CLOVIS         MOSUNNY   91  50  24 W17G24    30.05F
HOLLOMAN AFB   SUNNY     89  54  30 W7        30.06F
ROSWELL        MOSUNNY   89  58  34 SW8G16    30.04F
RUIDOSO          N/A     75  46  35 SW14G21   30.29S
SANTA FE       CLOUDY    74  45  35 W13       30.21F
TRUTH OR CONSE MOSUNNY   86  48  26 SW7G16    30.11F
TUCUMCARI      MOSUNNY   94  43  17 W17G26    30.00F
$$

USA.gov is the U.S. government's official web portal to all federal, state and local government web resources and services.